User: anonymous   Login
Location: Unspecified
(0.0000°N, 0.0000°E)
Time: 05:34:27
(UTC+01:00)
Language:

Cosmos 2082 Rocket - Orbit

View from above orbital plane
View from above orbital plane
View from above satellite
View from above satellite

Ground track
Ground track

The orbit data is extracted from the following two-line orbital elements,

1 20625U 90046B   17345.62298630 -.00000072 +00000-0 -12624-4 0  9990
2 20625 070.9971 136.7354 0015253 205.6590 154.3778 14.14620092422677
Epoch (UTC): 11 December 2017 14:57:06
Eccentricity: 0.0015253
inclination: 70.9971°
perigee height: 832 km
apogee height: 854 km
right ascension of ascending node: 136.7354°
argument of perigee: 205.6590°
revolutions per day: 14.14620092
mean anomaly at epoch: 154.3778°
orbit number at epoch: 42267

The dashed part of the orbit path shows where the satellite is in the earth's shadow,  

DLR